Theta_e
321 326 326 323 324 323 323 322 320 319 318 317 316 315 313 313 314 317 320 321 328 332 333 333 332 331 329 329 329 330 331 331 331 331 332 333 333 333 332 332 332 332 332
319 324 325 324 324 324 322 322 320 317 316 316 315 314 313 314 316 316 320 322 325 329 330 329 329 329 329 330 331 332 332 332 331 330 330 330 330 330 331 331 331 331 332
315 320 324 324 323 324 322 322 319 316 315 315 314 314 313 315 316 319 321 320 319 320 325 327 328 329 330 331 331 329 327 326 325 325 325 325 325 324 324 325 326 329 331
312 316 323 322 324 323 322 320 318 315 313 312 312 313 313 316 318 317 318 317 316 316 319 322 324 327 328 329 329 327 326 325 323 322 322 321 321 322 322 322 322 323 323
310 313 321 324 324 322 321 319 317 316 313 312 312 313 315 318 317 315 313 312 312 312 313 314 314 317 323 327 327 327 325 323 321 321 321 322 322 322 322 322 322 322 322
308 312 320 323 323 322 320 319 318 317 314 313 315 314 314 313 313 312 310 310 310 309 308 308 309 310 316 320 321 323 322 320 319 319 318 318 318 319 319 319 321 322 322
308 312 320 323 322 321 320 319 318 316 314 315 312 309 309 309 308 308 309 308 307 308 307 307 306 307 307 313 316 318 320 319 318 317 316 317 317 317 317 318 318 319 319
309 312 321 321 321 321 319 319 318 315 315 315 312 311 306 306 306 306 307 306 306 306 305 306 306 304 303 303 307 311 312 313 313 313 313 313 313 313 314 315 315 315 316
312 315 321 321 320 321 319 318 318 315 313 315 314 309 304 304 304 305 304 304 304 304 305 304 304 301 299 299 300 302 306 307 308 309 310 310 310 310 311 311 311 311 312
314 321 321 320 320 320 319 318 318 317 316 313 313 311 310 307 301 299 303 302 303 303 303 303 302 299 297 295 298 300 302 304 304 305 305 306 307 307 308 308 308 308 308
319 321 321 320 320 319 319 319 318 318 317 315 312 307 307 306 306 303 297 299 303 302 301 300 297 296 295 294 295 297 301 302 302 301 302 302 303 305 305 306 307 307 307
319 320 320 320 320 319 319 319 318 316 313 312 311 309 307 306 305 304 299 300 297 298 298 297 296 293 292 292 294 295 298 299 300 299 299 300 300 301 302 303 304 304 305
310 312 313 314 314 316 315 314 311 310 309 308 307 305 305 304 307 306 303 300 297 297 295 294 293 293 292 290 291 291 294 296 298 298 298 298 298 298 299 300 301 301 302
306 308 308 308 309 309 309 308 307 305 304 302 300 300 299 298 301 305 304 300 298 300 298 291 290 290 289 288 290 291 289 294 296 296 296 296 296 296 297 297 298 299 300
303 303 303 304 304 303 303 302 301 300 300 299 297 296 295 294 294 294 296 300 298 295 292 288 288 288 288 287 289 287 287 290 292 294 294 293 294 295 295 295 296 297 300
301 301 301 301 301 301 301 300 298 298 296 295 294 293 292 291 291 291 290 290 292 293 287 288 286 287 287 288 288 285 286 286 289 292 291 292 292 293 293 293 293 294 295
298 297 297 297 296 296 296 295 294 293 292 292 292 291 290 290 289 289 289 288 288 288 285 286 287 287 284 284 284 284 284 283 283 290 290 290 290 291 291 291 291 291 292
292 292 292 292 291 291 292 292 291 291 290 289 289 289 288 289 288 288 288 287 287 286 285 283 284 283 282 282 282 281 283 284 281 287 288 288 289 289 289 289 288 288 289
290 290 291 289 289 289 289 289 289 288 287 287 287 287 286 287 285 286 286 286 286 287 285 284 282 282 282 281 280 280 281 280 283 285 286 286 287 287 287 287 286 287 287
288 288 289 289 288 288 288 287 287 286 286 285 286 285 285 285 285 284 284 284 284 283 283 282 281 280 280 281 279 278 278 279 279 282 282 283 284 284 285 284 285 286 286
287 287 288 287 287 287 287 286 286 285 285 284 284 285 285 284 286 286 284 282 283 282 281 281 280 280 279 279 278 279 278 278 277 278 278 278 278 278 279 280 282 285 285
285 285 285 286 286 287 288 289 286 285 284 284 283 283 284 284 287 289 288 287 285 282 281 281 279 279 279 279 280 279 277 276 274 277 276 277 277 277 276 277 284 285 285
284 283 284 284 285 286 290 289 287 284 283 283 283 283 284 284 283 284 287 287 286 287 285 281 280 279 279 281 281 279 277 276 275 277 274 273 276 275 277 278 283 284 283
282 282 282 283 283 287 289 288 286 283 283 283 283 282 283 282 283 283 282 282 282 282 282 282 281 281 281 282 281 280 277 275 274 276 274 268 273 272 276 276 281 282 282
281 281 282 282 283 284 289 288 285 282 282 281 282 281 282 282 287 286 282 281 281 281 284 285 285 285 285 284 282 279 276 273 268 272 273 269 271 270 271 271 276 280 279
282 282 282 281 281 283 289 288 284 282 281 281 281 282 283 283 286 285 281 280 279 279 280 281 282 282 282 282 283 280 278 274 272 266 274 269 268 269 266 270 272 273 273
Wind_Speed
6 5 7 7 7 7 7 6 6 5 5 5 4 5 5 4 3 1 1 5 5 7 8 12 11 10 9 8 8 8 8 8 8 8 9 11 12 14 17 20 21 22 23
7 7 10 10 9 7 5 7 7 5 4 5 4 5 4 2 3 3 3 5 14 16 14 12 11 10 8 6 8 14 19 22 20 19 19 17 16 16 14 15 19 24 24
6 7 9 11 8 8 11 7 5 4 4 4 5 4 3 2 4 6 7 6 9 13 14 13 14 10 11 13 19 20 19 19 20 20 19 18 18 17 17 20 25 22 20
6 8 8 10 12 8 7 6 5 4 4 4 3 3 3 4 7 7 8 6 6 6 10 16 17 17 15 14 17 19 20 19 18 18 17 17 17 17 17 19 20 20 21
5 8 9 10 13 10 8 7 5 6 5 4 4 3 4 5 7 7 9 9 7 6 6 15 18 19 17 18 19 19 19 18 17 17 17 17 18 18 17 18 17 18 18
6 7 7 9 13 7 8 8 8 3 3 5 6 8 6 6 5 7 8 7 8 8 7 7 6 9 17 18 18 18 17 16 16 17 17 17 18 19 19 20 21 21 20
6 5 7 11 10 10 11 11 10 8 3 6 7 7 7 7 8 7 6 6 8 8 8 7 5 4 5 16 17 17 17 17 17 17 17 18 19 19 19 20 20 21 22
5 6 8 11 13 8 10 11 11 9 4 7 6 5 4 3 7 6 5 6 9 6 7 7 8 8 7 5 12 17 17 17 17 18 18 19 19 19 19 20 21 21 20
6 7 10 10 10 9 9 10 10 9 10 5 6 4 3 3 4 3 6 6 6 6 6 7 8 8 8 6 8 10 17 18 17 18 19 20 19 20 20 20 20 18 18
5 7 9 9 10 8 9 9 8 8 6 8 3 3 4 6 4 5 4 4 6 7 7 6 6 8 6 4 8 12 15 17 16 19 19 18 19 19 20 19 19 19 19
5 8 9 9 8 6 8 10 9 9 4 5 4 3 4 4 5 5 5 5 6 7 7 6 5 5 6 6 4 9 17 15 17 17 18 18 19 19 20 20 20 21 21
5 6 7 7 8 7 7 8 6 7 6 7 5 4 3 3 6 5 6 6 9 5 5 4 5 3 5 5 7 13 13 14 15 16 17 18 18 20 20 20 20 20 20
7 8 10 8 6 5 7 9 11 11 9 8 9 7 6 5 2 8 8 6 5 3 3 4 2 4 6 4 5 7 12 15 16 17 17 18 19 18 19 19 20 21 21
7 12 12 12 13 13 12 13 10 11 11 11 13 9 7 5 4 5 7 9 5 3 3 3 3 4 4 4 6 8 6 17 16 16 16 16 16 16 17 19 20 20 20
11 11 12 14 14 15 16 15 9 13 11 11 10 9 7 6 6 5 4 3 3 4 2 2 2 3 3 4 7 6 6 13 15 14 16 17 16 17 18 18 20 22 22
12 15 13 15 14 14 13 17 11 11 12 10 7 10 8 6 7 6 5 4 3 4 4 2 2 2 4 4 6 6 6 9 12 14 17 17 17 17 19 19 21 22 23
12 13 13 14 14 13 13 15 12 10 13 12 9 10 8 5 6 6 6 5 5 3 6 2 2 3 5 5 5 4 4 5 5 13 17 17 17 17 19 20 21 21 21
13 13 13 14 14 14 12 12 12 9 12 11 8 10 7 6 9 7 6 7 6 5 4 4 2 3 4 3 3 3 5 4 3 7 17 18 16 18 19 20 19 18 18
12 12 13 14 12 11 12 11 11 12 10 9 8 8 7 8 8 6 6 6 5 4 4 4 3 1 1 3 2 3 3 3 3 7 14 14 14 16 17 19 17 18 18
11 11 12 10 10 10 10 10 11 11 10 9 8 8 7 8 7 6 6 5 4 4 4 3 3 2 2 2 2 2 4 3 3 3 9 9 10 10 16 18 16 17 18
8 8 9 9 8 8 6 9 10 10 10 10 8 9 8 7 10 7 4 4 5 4 3 3 3 1 2 3 3 3 2 5 3 2 4 4 2 2 5 11 10 15 19
8 9 9 7 7 5 11 14 11 9 8 9 9 7 6 6 8 12 12 10 5 3 3 2 2 3 1 1 2 4 3 3 4 1 5 4 3 5 3 3 12 16 20
6 7 7 7 7 6 12 13 12 7 8 7 7 6 6 4 5 6 10 10 10 11 7 4 3 2 2 3 2 4 3 2 3 3 3 3 3 4 5 5 10 16 19
6 5 6 6 6 6 13 13 12 7 6 6 6 5 5 5 4 5 5 5 5 5 4 3 4 2 2 2 1 2 2 4 6 1 2 2 2 3 6 3 7 17 19
5 4 4 5 6 6 11 12 9 6 7 6 5 6 5 6 8 8 5 5 4 3 5 5 3 3 3 5 3 0 3 3 3 2 1 1 2 3 3 3 3 17 19
4 5 5 5 5 5 10 12 9 5 7 4 4 4 6 6 8 7 4 3 3 2 2 2 3 4 3 2 4 1 2 3 3 3 2 3 3 3 4 3 3 2 5
Wind_Direction
299 215 195 191 161 158 164 157 152 162 158 173 185 170 179 170 167 60 140 202 163 98 91 71 63 52 37 20 3 352 342 334 324 324 319 312 306 297 286 275 267 254 246
285 256 181 190 170 158 162 160 158 164 166 162 169 186 171 135 110 124 76 63 70 85 88 80 62 48 34 25 38 52 54 46 49 49 45 37 28 20 356 324 293 271 263
266 279 203 164 173 176 165 151 160 143 149 148 167 150 150 152 78 87 101 95 79 68 74 76 68 55 61 69 73 66 60 55 55 53 49 44 40 35 26 25 26 14 293
256 270 226 192 153 155 155 157 144 151 146 153 143 155 164 91 89 87 86 81 77 80 70 71 67 50 49 67 77 75 69 56 55 53 46 42 38 34 28 27 26 20 15
245 256 261 176 157 151 156 153 150 160 157 144 133 99 68 93 93 89 87 81 78 81 83 69 56 47 46 56 59 63 63 56 44 45 42 36 34 31 30 28 25 21 15
242 247 261 151 138 148 156 154 152 122 140 141 90 77 68 70 72 81 83 80 76 72 72 71 57 48 44 49 49 50 51 51 45 39 34 30 26 22 17 16 16 15 16
228 229 231 153 144 172 169 167 141 143 164 118 106 86 71 68 70 69 76 84 87 79 78 73 68 63 50 48 49 48 45 43 40 35 31 27 24 21 18 17 16 15 13
225 230 180 157 174 159 149 160 168 155 174 162 140 130 132 113 59 60 73 84 83 84 75 66 64 53 48 44 48 51 47 43 41 39 32 27 24 21 14 15 12 8 6
217 245 151 158 165 163 164 170 168 173 162 174 174 143 146 127 118 31 50 68 85 81 74 72 68 58 53 48 41 40 48 43 40 39 34 27 24 21 15 14 8 3 359
189 186 143 156 149 146 161 171 172 171 150 161 116 48 73 131 140 134 57 70 76 75 71 60 62 56 44 47 39 39 42 44 38 38 33 25 22 18 14 11 6 1 359
150 152 148 136 138 152 167 170 169 159 144 141 118 143 70 66 94 126 130 119 82 62 57 55 57 58 39 33 42 32 42 41 41 39 33 25 20 14 9 6 2 358 353
98 126 134 138 149 153 163 164 121 118 106 105 104 85 114 120 139 135 125 125 104 63 58 40 40 47 50 38 39 35 35 40 41 39 31 24 19 15 8 2 358 354 348
51 65 75 77 85 90 108 103 102 91 89 94 96 87 70 66 108 125 131 128 122 155 92 50 4 38 49 28 32 35 27 34 37 35 30 25 21 15 8 2 358 352 346
81 71 80 74 78 84 80 80 94 93 92 85 81 82 82 56 52 108 136 138 137 129 126 126 14 40 38 25 30 29 22 31 35 27 30 28 16 15 10 7 2 355 348
77 82 82 84 83 84 82 85 70 86 87 94 74 78 83 66 60 56 48 95 124 137 121 62 132 39 53 40 30 29 30 24 29 29 33 15 16 15 15 10 6 359 356
81 80 84 86 87 89 92 97 86 80 88 82 85 82 68 66 64 57 76 71 68 127 124 126 51 106 31 42 28 31 27 27 20 43 25 21 21 17 13 11 11 3 354
66 78 83 84 82 83 83 85 87 95 88 86 79 89 78 68 75 62 59 52 54 67 109 72 81 29 39 24 12 14 26 29 356 28 22 21 20 19 13 13 8 2 353
60 63 69 73 72 71 77 88 93 87 93 92 89 86 76 78 69 62 65 62 59 46 105 116 88 35 65 2 358 6 17 13 341 14 19 20 18 17 14 9 0 358 352
70 65 70 69 70 70 76 74 87 84 81 76 73 81 77 82 73 68 66 69 56 62 71 121 133 27 54 39 349 338 323 316 338 13 11 9 11 14 10 5 1 359 353
54 62 69 85 88 92 94 102 98 94 87 78 77 79 77 82 91 89 84 89 86 82 75 89 84 98 51 8 46 350 347 332 319 0 352 351 347 352 9 9 2 349 356
48 57 71 65 63 75 90 90 89 95 101 91 77 74 70 79 92 96 103 94 97 93 107 107 110 98 41 27 25 328 281 314 301 11 325 325 290 305 8 3 340 3 1
76 67 55 56 64 72 99 108 111 107 102 106 99 84 80 91 97 94 94 91 101 112 103 87 47 54 60 136 349 350 343 347 335 16 356 296 352 343 352 340 347 4 359
90 94 96 97 92 92 105 107 106 108 108 107 113 118 99 85 93 98 100 91 73 74 84 129 139 141 43 24 342 341 331 324 275 318 316 286 340 328 335 336 341 1 358
108 102 98 95 103 109 120 118 107 101 104 95 89 91 102 104 102 104 108 115 102 72 78 88 95 125 132 104 57 4 309 308 283 214 308 282 329 304 318 323 340 356 353
114 115 122 118 115 121 130 129 116 109 106 113 124 123 122 127 143 147 138 122 114 76 49 55 46 12 19 20 99 62 324 329 310 283 321 253 326 303 305 310 330 350 348
134 131 130 138 137 144 156 157 146 137 133 136 135 137 145 131 120 109 111 114 85 56 39 28 25 4 353 326 12 321 313 315 307 306 278 347 342 3 324 295 308 340 328